Dewpoint
20 23 23 21 24 24 23 23 22 22 23 21 22 22 19 20 20 21 24 30 31 31 30 31 37 44 47 48 50 52 51 50 51 53 54 54 55 55 55 55 54 54 54 54
27 22 21 22 22 22 20 19 19 19 18 20 21 22 20 20 19 21 25 33 36 37 36 34 33 33 43 46 49 51 52 52 51 52 53 54 54 54 55 55 54 54 53 53
25 23 21 17 20 22 22 22 21 19 19 16 17 16 19 23 27 29 32 36 38 40 40 40 38 37 36 41 47 49 51 52 51 52 52 53 54 53 53 54 54 53 53 53
25 24 21 18 18 18 19 18 18 16 15 18 22 24 26 26 33 35 37 39 40 40 41 41 40 39 39 35 40 46 48 50 51 51 52 52 53 53 53 53 53 53 53 53
19 18 17 13 15 14 14 10 13 14 22 24 26 27 26 33 35 36 38 39 40 41 42 43 43 43 40 36 35 38 45 48 50 50 50 51 51 52 53 53 53 53 54 54
22 17 12 14 18 25 19 10 23 26 27 27 28 26 26 34 35 37 36 38 39 41 42 44 45 46 45 38 34 36 39 46 49 49 49 50 51 52 53 53 52 46 43 42
20 18 16 15 20 21 19 23 29 29 29 29 28 28 33 35 37 37 37 37 39 40 42 43 44 44 46 46 43 38 39 41 48 49 49 51 51 52 50 44 39 36 34 34
20 21 17 22 22 21 33 33 32 32 33 36 35 33 32 37 38 39 37 36 37 38 39 40 39 39 42 47 49 52 51 50 50 50 49 48 45 43 41 38 35 32 31 30
19 20 27 26 33 36 35 34 34 35 35 35 34 34 36 38 38 38 37 36 35 36 36 34 33 35 37 40 45 47 47 44 42 41 41 40 39 37 35 34 33 31 29 27
30 23 29 26 33 35 35 35 35 34 34 34 35 36 35 35 35 35 34 34 34 32 32 30 30 31 32 37 39 39 37 36 36 35 34 35 35 35 34 32 31 29 27 25
24 25 24 24 34 36 35 35 34 34 34 34 33 33 33 33 32 32 32 31 32 30 29 28 28 29 30 34 35 33 32 31 30 29 28 28 28 30 29 30 30 27 26 25
23 33 33 30 33 35 33 33 33 33 32 32 32 31 31 31 29 27 28 27 27 26 26 26 27 28 29 31 32 31 29 29 28 27 26 26 25 25 28 27 27 27 26 25
33 35 35 34 34 34 33 32 31 30 29 29 29 28 28 28 26 24 24 24 24 24 24 25 25 25 28 30 30 29 28 27 27 27 26 25 23 22 21 25 27 27 27 27
31 31 33 34 33 32 31 30 29 28 27 26 25 25 24 22 21 22 22 22 22 21 22 23 23 24 27 28 28 28 28 27 26 26 26 26 25 24 23 22 20 21 25 25
28 27 29 31 31 29 28 27 28 25 24 22 21 20 20 19 18 19 20 21 20 20 21 21 22 24 26 27 26 26 27 27 28 27 27 26 24 23 22 21 20 20 21 21
25 26 28 28 26 25 25 24 24 22 21 20 19 19 19 18 18 18 18 18 17 17 20 20 21 24 26 27 26 25 25 26 26 25 25 25 24 22 21 20 20 20 20 21
24 25 24 25 24 22 21 21 20 19 19 19 20 21 20 19 18 18 18 18 17 18 18 19 20 22 25 26 25 25 25 24 24 24 24 23 22 20 19 18 16 16 16 16
23 24 23 24 24 22 20 21 19 18 18 18 18 18 17 16 15 16 17 18 17 16 17 18 19 20 21 23 24 23 22 21 20 20 20 19 18 17 17 16 15 14 12 12
23 22 21 22 22 20 19 18 18 18 18 17 16 15 15 15 15 14 15 14 13 12 13 13 13 14 14 16 16 17 17 16 16 15 15 15 15 14 14 13 12 11 9 8
19 18 18 18 19 18 16 17 17 16 18 17 16 15 14 15 16 14 12 9 9 8 8 9 7 7 8 10 12 12 12 11 9 10 10 11 11 10 8 7 8 9 8 7
16 16 17 16 16 17 17 17 15 14 15 14 12 11 11 11 9 11 7 5 6 5 4 5 6 5 5 6 8 10 10 9 9 9 9 9 8 7 7 7 7 7 7 6
16 15 15 16 15 15 15 15 15 15 15 15 15 15 11 9 8 6 6 5 4 4 4 4 5 6 6 7 7 7 6 7 7 7 7 7 7 6 6 6 5 5 5 5
16 16 16 15 15 14 15 14 14 13 11 10 9 8 7 6 5 5 3 3 3 4 3 4 4 6 6 8 7 7 6 5 5 5 5 5 5 5 4 3 4 3 3 2
18 18 18 18 18 15 13 12 11 10 9 8 8 9 8 8 6 5 4 3 3 3 3 3 4 5 5 6 6 5 5 5 5 5 4 3 4 3 3 2 1 3 2 1
18 18 16 13 11 10 10 8 7 7 7 6 6 5 5 5 6 5 5 3 2 4 5 2 3 3 5 4 4 4 4 3 2 4 3 3 2 2 2 1 1 -0 -0 0
13 11 11 11 9 8 7 7 7 7 6 7 7 8 8 6 5 5 5 3 3 3 4 4 3 4 4 3 3 2 3 2 2 1 1 1 1 1 0 -1 -1 -1 -1 -1
11 9 8 7 6 7 7 7 8 7 8 7 6 6 6 6 4 3 4 4 4 4 4 4 4 2 1 2 2 2 2 2 1 -2 0 0 -0 -0 -1 -2 -2 -2 -2 -3
Wind_Speed
12 5 5 7 17 13 15 15 13 15 12 10 7 9 13 12 14 18 17 18 20 22 18 17 14 19 24 27 27 29 30 31 34 33 30 29 29 29 29 29 30 30 29 30
9 7 6 8 10 13 15 14 15 17 17 16 15 5 9 12 16 18 21 20 20 22 24 22 23 16 20 24 26 27 29 31 30 27 30 30 30 30 28 29 29 28 30 29
5 8 8 10 18 16 15 17 15 17 11 9 7 7 11 16 17 17 17 22 24 22 21 23 24 21 16 20 23 26 29 30 29 28 30 31 30 30 31 30 27 30 29 28
7 6 6 7 4 4 15 15 13 8 5 4 5 6 10 14 10 15 17 21 24 23 23 23 25 26 24 19 22 26 29 29 28 28 29 28 28 31 29 28 29 28 27 27
9 11 12 6 3 10 9 8 3 2 3 3 6 8 10 14 13 16 17 19 22 25 26 23 23 24 26 25 21 25 28 28 29 28 28 28 29 30 27 25 24 23 20 22
7 15 15 7 3 2 3 10 13 5 4 7 10 9 8 15 14 17 20 19 22 24 24 24 25 27 28 25 23 24 25 27 26 26 26 26 25 23 21 21 15 12 10 9
18 12 8 9 10 0 13 6 9 6 8 11 10 12 12 12 13 15 18 22 22 22 22 24 25 26 26 26 26 25 23 22 21 23 23 22 21 18 12 15 15 15 17 15
20 14 17 8 3 9 8 5 8 8 10 10 12 12 10 11 14 16 20 22 22 21 21 21 24 26 27 28 20 16 10 3 10 9 9 13 19 16 15 18 21 18 19 18
16 14 3 3 7 9 7 7 9 11 11 12 15 17 15 12 16 17 18 20 22 20 18 18 24 24 25 26 20 12 6 8 12 15 14 14 17 18 18 17 18 17 16 17
2 9 11 6 8 8 10 10 11 13 14 14 14 14 14 15 16 17 18 20 22 22 19 20 21 23 24 22 15 9 11 13 15 20 21 19 18 15 15 14 15 14 18 17
11 11 8 8 9 9 10 12 14 15 15 15 15 14 15 14 16 17 18 19 20 20 19 19 20 22 24 23 13 11 15 16 20 22 24 23 25 18 19 18 16 17 16 17
6 10 9 8 10 11 13 15 15 16 16 15 14 14 15 14 14 15 16 18 19 20 21 22 23 22 21 22 18 11 17 16 17 24 22 19 27 32 38 37 38 35 31 26
3 8 9 11 13 13 11 12 13 13 14 15 14 14 14 11 13 13 15 17 19 19 20 20 24 24 24 20 17 15 17 18 17 27 21 18 23 27 31 34 37 35 34 33
9 12 1 11 7 9 10 10 7 8 10 12 13 13 11 11 13 16 17 16 17 18 21 20 23 25 23 20 18 18 16 21 23 23 20 23 15 21 23 24 26 26 27 26
7 7 6 7 5 7 8 9 6 8 10 11 13 12 13 13 16 16 15 14 17 21 22 21 25 26 22 20 20 21 17 21 21 21 23 23 18 23 22 23 21 20 17 18
11 7 3 5 6 8 8 8 6 8 9 10 13 14 14 16 16 18 19 21 24 25 24 24 25 22 20 20 22 20 22 26 23 19 19 20 17 20 21 18 19 18 15 12
10 5 10 7 6 8 8 8 8 8 9 12 14 11 14 16 18 19 20 20 22 23 24 23 23 22 22 21 21 18 17 19 20 19 19 19 18 19 18 18 18 17 16 15
7 7 7 7 6 7 10 11 11 11 12 15 16 16 17 17 17 16 16 15 19 24 24 21 20 22 24 22 20 18 17 17 18 18 18 18 17 17 18 16 16 15 14 14
11 9 9 11 11 12 12 14 14 14 15 15 17 18 17 17 16 17 17 20 21 22 22 18 21 22 23 22 18 15 16 17 17 17 16 16 16 16 14 15 15 14 13 12
12 12 14 16 15 14 17 16 16 16 15 15 15 17 17 15 13 16 19 23 20 17 18 20 19 20 19 19 17 16 16 16 16 16 15 14 14 13 13 14 13 13 12 11
15 16 17 17 17 17 17 15 16 17 16 16 17 17 16 16 18 14 15 17 18 16 17 19 20 17 17 15 16 16 16 16 15 14 13 12 12 12 12 12 11 11 10 9
14 16 16 16 17 18 17 17 16 15 15 14 12 10 11 12 14 17 17 14 13 14 14 15 16 18 15 14 15 15 14 14 13 11 11 11 10 10 10 10 10 9 8 8
15 15 15 15 16 16 16 15 15 15 15 15 14 14 14 13 13 11 11 14 13 14 13 14 14 14 14 13 12 12 12 12 12 11 11 11 10 9 9 9 8 7 7 7
14 13 13 11 11 12 14 12 12 13 12 12 12 13 9 8 10 11 10 9 9 11 13 12 12 12 11 11 11 12 12 11 10 10 9 8 8 7 7 7 6 6 5 5
11 10 9 9 10 10 9 9 9 9 9 10 10 11 11 11 9 8 8 8 10 9 9 10 10 10 11 11 11 10 9 9 10 9 8 7 7 6 7 7 6 7 7 6
8 9 9 9 7 6 5 4 5 5 5 6 7 6 7 6 6 5 6 6 8 8 9 8 9 9 9 9 9 8 8 7 8 6 6 5 6 6 6 7 7 6 6 6
7 5 6 7 8 8 7 7 5 5 5 4 5 5 5 5 5 5 5 7 7 7 7 7 7 8 8 8 7 7 7 7 4 6 6 6 6 7 6 7 7 7 6 6
Wind_Direction
244 313 302 240 194 204 222 230 249 241 245 264 281 281 297 331 332 331 331 339 338 330 328 323 227 230 224 224 215 213 215 213 215 211 212 215 218 217 218 218 219 219 221 225
274 237 254 246 238 236 229 242 242 252 264 275 272 319 303 307 314 318 326 341 339 333 329 325 317 261 234 232 224 213 218 222 220 215 212 215 216 216 217 220 221 221 222 224
263 263 288 259 239 234 236 238 238 243 256 12 339 312 300 299 312 314 330 333 332 328 324 317 311 314 270 253 229 224 219 224 223 218 216 217 214 214 216 217 217 222 224 223
224 199 229 236 57 230 237 246 249 265 294 345 328 307 297 288 356 349 335 331 328 330 331 324 315 308 299 278 255 231 226 224 223 219 220 215 215 217 218 214 215 217 222 223
247 249 269 237 284 237 225 245 156 180 87 27 353 307 268 44 14 343 336 338 332 332 329 328 319 306 293 285 274 250 231 226 221 218 217 216 215 214 213 213 214 216 222 226
205 243 254 271 141 313 244 235 114 64 21 350 348 297 339 3 351 337 338 339 338 331 332 337 337 330 316 293 274 263 251 229 223 219 215 217 216 213 208 204 193 136 110 89
232 244 259 259 161 341 219 120 77 18 2 348 321 326 322 320 327 338 337 341 340 341 340 344 343 334 318 300 285 273 264 254 228 225 215 210 207 207 148 123 110 97 90 72
226 234 240 255 178 241 52 38 27 6 12 346 323 308 310 334 319 337 342 345 350 343 345 354 354 345 334 318 334 335 339 19 58 54 74 103 119 117 118 122 116 106 99 85
196 220 165 116 87 66 27 6 11 8 358 356 348 346 332 322 336 346 348 349 353 348 346 360 1 356 339 330 336 344 15 56 76 79 77 84 104 108 108 110 113 115 113 105
195 203 220 135 83 56 21 6 5 2 351 345 345 339 347 340 350 348 350 352 348 350 350 354 14 358 344 336 345 38 60 66 67 75 74 68 69 74 91 102 110 114 113 104
238 251 267 170 80 42 1 354 352 354 349 346 345 343 348 347 0 359 357 356 353 356 354 7 19 8 356 348 7 50 69 72 74 70 67 70 64 66 75 68 95 100 95 96
249 41 348 51 20 31 4 5 359 350 354 358 357 353 360 16 11 8 6 7 9 10 15 6 26 13 7 11 9 39 67 65 77 86 78 79 85 78 69 77 79 84 85 88
50 357 349 337 33 33 13 4 1 356 7 0 4 8 19 23 23 20 20 25 26 20 18 13 34 22 5 35 17 50 68 74 77 78 80 76 86 88 88 74 74 76 84 88
22 352 42 29 352 8 355 1 1 16 25 29 15 25 36 40 38 34 31 27 37 34 30 18 37 30 17 12 46 44 55 73 76 87 84 87 73 87 91 90 85 73 69 79
9 343 313 342 20 8 7 7 20 39 39 41 46 41 47 54 55 49 42 36 47 44 35 22 35 32 23 33 41 49 45 57 63 71 73 75 85 83 80 83 84 87 82 77
329 318 12 6 3 7 12 16 41 45 49 55 64 64 67 70 67 60 52 47 48 42 34 29 28 25 28 37 41 42 47 52 57 60 68 72 76 77 78 82 79 75 68 81
352 26 2 7 22 22 31 39 55 65 75 78 74 80 81 75 67 60 55 51 49 45 40 31 28 23 31 37 46 45 47 51 57 58 63 70 72 79 82 82 82 78 68 58
36 37 32 26 51 75 69 66 71 78 81 83 80 74 68 63 62 56 50 47 51 46 37 31 30 33 34 37 41 48 51 54 54 56 60 66 73 76 81 86 89 91 87 69
44 63 63 65 73 85 87 82 80 82 81 82 81 76 73 67 62 57 50 47 45 40 24 27 34 40 37 34 47 50 56 58 61 63 67 65 63 67 74 77 76 74 71 66
75 76 77 76 73 82 85 79 81 75 70 75 76 72 68 59 60 64 60 55 44 39 33 22 36 37 40 37 41 50 55 63 64 61 50 59 66 72 73 64 68 70 70 66
84 82 81 81 78 74 75 77 79 75 71 73 78 75 70 60 45 40 55 53 34 34 38 41 33 35 37 35 44 45 50 55 56 56 57 59 61 61 62 65 63 62 63 57
83 82 79 79 78 75 70 73 74 75 73 73 76 83 84 78 78 66 47 48 45 33 43 41 38 32 34 43 51 51 52 55 56 56 56 56 58 60 58 58 57 55 51 45
88 86 84 82 83 84 79 74 73 75 74 70 67 66 63 57 44 50 51 33 39 30 47 42 30 32 41 47 52 56 56 55 53 50 50 49 46 48 51 38 43 41 33 20
92 91 93 101 107 95 87 88 86 84 84 77 58 35 43 66 61 59 65 54 45 59 52 39 32 30 42 46 45 45 40 41 43 41 51 40 40 40 36 30 22 13 8 359
95 102 106 103 96 94 98 102 99 92 82 73 66 64 59 52 61 47 41 55 37 31 50 41 32 33 36 40 34 32 38 39 22 22 23 23 18 15 10 10 359 358 340 343
86 84 79 64 69 76 79 71 72 73 85 84 70 63 60 56 62 55 67 43 41 33 32 40 27 14 31 28 22 19 10 17 5 21 351 3 359 352 353 349 339 339 341 340
97 106 100 81 64 50 39 40 69 69 60 67 78 59 60 58 52 38 34 26 30 22 26 20 24 19 6 354 5 357 350 352 36 350 339 343 339 340 342 335 332 330 325 322